Current weather by "City, St" or "zip code"  
 

Current Conditions: Ogdensburg International Airport, NY

Overcast


70.0 F

Last Updated on May 21 2022, 4:15 am EDT
Humidity: 83%
Wind Speed: S 10.4 mph
Barometer 29.74 in
Dewpoint: 64.4 F
Visibility: 10.00 mi
Precip: --
Heat Index: NA
Wind Chill: NA
Current conditions at:

Ogdensburg International Airport, NY (KOGS)

Lat: 44.68186 Lon: 75.4655

Local Radar Image active severe weather and emergency alerts image image weather storm and storm spotter reports image weather observation monitoring service image
Local
Radar
Active
Alerts
Storm Reports Obs
Monitoring

Sign-up For Email & Text Message Weather Alert Notification Services



Advertise Here

Observation History for Ogdensburg International Airport, NY


Time Wind
(mph)
Vis
(mi)
Weather Precip (in) Temperature (F) Relative
Humidity
Wind
Chill
(F)
Heat
Index
(F)
Pressure
Air Dwpt altimeter
(in)
sea level
(mb)
Rmks
4:15 am EDT S 10.4 10.00 Overcast -- 70.0 64.4 83% NA NA 29.74 M
3:55 am EDT S 9.2 G 15.0 10.00 Mostly Cloudy -- 70.0 64.4 83% NA NA 29.73 M
3:15 am EDT S 11.5 G 18.4 10.00 Fair -- 70.0 64.4 83% NA NA 29.71 M
2:55 am EDT S 11.5 10.00 Fair -- 70.0 64.4 83% NA NA 29.71 M
2:35 am EDT S 10.4 G 18.4 10.00 Fair -- 70.0 62.6 78% NA NA 29.71 M
2:15 am EDT S 11.5 G 20.7 10.00 Partly Cloudy -- 70.0 62.6 78% NA NA 29.71 M
1:55 am EDT S 9.2 G 17.3 10.00 Mostly Cloudy -- 70.0 62.6 78% NA NA 29.72 M
1:15 am EDT S 11.5 G 20.7 10.00 Mostly Cloudy -- 70.0 62.6 78% NA NA 29.72 M
12:55 am EDT S 11.5 G 18.4 10.00 Partly Cloudy -- 70.0 62.6 78% NA NA 29.72 M
12:35 am EDT S 10.4 G 16.1 10.00 A Few Clouds -- 70.0 62.6 78% NA NA 29.71 M
12:15 am EDT 5.8 10.00 A Few Clouds -- 68.0 60.8 78% NA NA 29.73 M
11:55 pm EDT S 4.6 10.00 Fair -- 68.0 60.8 78% NA NA 29.74 M
11:35 pm EDT SW 6.9 10.00 Fair -- 72.0 60.8 69% NA NA 29.75 M
10:55 pm EDT SW 12.7 10.00 Fair -- 73.0 60.8 65% NA NA 29.74 M
10:15 pm EDT S 13.8 G 20.7 10.00 Fair -- 75.0 60.8 61% NA NA 29.74 M
9:55 pm EDT S 10.4 G 17.3 10.00 Fair -- 75.0 60.8 61% NA NA 29.72 M
9:35 pm EDT S 10.4 G 16.1 10.00 Fair -- 75.0 60.8 61% NA NA 29.68 M
9:15 pm EDT S 9.2 G 15.0 10.00 Fair -- 75.0 60.8 61% NA NA 29.66 M
8:55 pm EDT S 9.2 10.00 Fair -- 75.0 60.8 61% NA NA 29.66 M
8:35 pm EDT S 8.1 G 16.1 10.00 Fair -- 75.0 60.8 61% NA NA 29.64 M
8:15 pm EDT S 5.8 G 13.8 10.00 Fair -- 77.0 60.8 57% NA NA 29.66 M
7:55 pm EDT S 9.2 10.00 Fair -- 77.0 60.8 57% NA NA 29.67 M
5:55 pm EDT S 13.8 10.00 Fair -- 82.0 60.8 48% NA 82 29.66 M
5:15 pm EDT S 19.6 G 25.3 10.00 Fair -- 82.0 60.8 48% NA 82 29.65 M

Regional Weather Observation


Fort Drum / Wheeler-Sack U. S. Army Airfield, NY (KGTB)

Fair
69.0 F

Massena, Massena International-Richards Field, NY (KMSS)

A Few Clouds
72.0 F

Potsdam Municipal Airport/Damon Field, NY (KPTD)

Overcast
72.0 F

Saranac Lake, Adirondack Regional Airport, NY (KSLK)

Mostly Cloudy
65.0 F

Watertown, Watertown International Airport, NY (KART)

Fair
73.0 F

Griffiss Air Force Base / Rome, NY (KRME)

Fair
67.0 F

Advertise Here


Advertise Here